Location: Laterina
(43.5167°N, 11.7167°E)
Time: 15:14:35
(UTC+00:00)

Cosmos 2026 Rocket - Pass Details

Date: 24 September 2020
Orbit: 940 x 1000 km, 82.9° (Epoch: 25 October)

Event Time Altitude Azimuth Distance (km) Brightness Sun altitude
Rises 18:49:49 0° 354° (N) 3,727 7.4 -19.3°
Reaches altitude 10° 18:52:24 10° 357° (N) 2,777 6.6 -19.8°
Maximum altitude 18:58:45 65° 80° (E) 1,092 4.0 -20.9°
Enters shadow 19:02:15 28° 154° (SSE) 1,784 5.0 -21.5°
